Preview of NWS' New Version of Forecast
This preview is not operational and should not be used for support decisions.

Regional Weather Roundup (RWR)

Issued by Gray - Portland, ME (GYX)

                            
573 
ASUS41 KGYX 180605
RWRGYX
WEATHER ROUNDUP FOR MAINE AND NEW HAMPSHIRE
NATIONAL WEATHER SERVICE GRAY ME
100 AM EST SUN FEB 18 2018

MEZ002-005-006-010-012-015-018-020-021-024-026-027-029-180700-
MAINE
  
CITY           SKY/WX    TMP DP  RH WIND       PRES   REMARKS
PORTLAND       LGT SNOW  33  32  96 S7        30.05F VSB 1            
6HR MIN TEMP:  32; 6HR MAX TEMP:  35; 6HR PCP:  0.18;                

SANFORD        LGT SNOW  31  29  92 CALM      30.04F VSB 3/4          
BAR HARBOR     LGT SNOW  30  29  96 S8        30.13F FOG              
WISCASSET      LGT SNOW  33  33 100 S5        30.09F FOG              
6HR MIN TEMP:  30; 6HR MAX TEMP:  35; 6HR PCP:  0.09;                

ROCKLAND       LGT SNOW  33  32  96 S7        30.09F FOG              
FRYEBURG       LGT SNOW  25  25 100 CALM      30.03F VSB 3/4          
6HR MIN TEMP:  25; 6HR MAX TEMP:  28; 6HR PCP:  0.05;                

LEWISTONAUBURN LGT SNOW  27  26  96 CALM      30.05F VSB 3/4          
AUGUSTA        LGT SNOW  27  26  96 SE5       30.06F VSB 3/4          
6HR MIN TEMP:  26; 6HR MAX TEMP:  27; 6HR PCP:  0.08;                

WATERVILLE     LGT SNOW  26  23  88 CALM      30.02F VSB 1            
BANGOR         LGT SNOW  29  27  92 S10       30.09F FOG     WCI  20  
6HR MIN TEMP:  24; 6HR MAX TEMP:  29; 6HR PCP:  0.01;                

GREENVILLE       N/A     18  16  92 SE7       29.97F                  
6HR MIN TEMP:  18; 6HR MAX TEMP:  20; 6HR PCP:  0.03;                

MILLINOCKET    LGT SNOW  20  16  84 NE5       30.08F VSB 1            
6HR MIN TEMP:  20; 6HR MAX TEMP:  23; 6HR PCP: TRACE;                

HOULTON        CLOUDY    22  10  60 S7        30.07F                  
6HR MIN TEMP:  20; 6HR MAX TEMP:  22;                                

PRESQUE ISLE   CLOUDY    19   7  59 SE12      30.06F WCI   7          
6HR MIN TEMP:  18; 6HR MAX TEMP:  20;                                

FRENCHVILLE    CLOUDY    16   3  56 SE10      29.99F WCI   4          
6HR MIN TEMP:  15; 6HR MAX TEMP:  17;                                

CARIBOU        CLOUDY    19   5  54 S8        30.04F                  
6HR MIN TEMP:  18; 6HR MAX TEMP:  20;                                

$$

NHZ002-005-008-009-011-012-014-180700-
NEW HAMPSHIRE
  
CITY           SKY/WX    TMP DP  RH WIND       PRES   REMARKS
PORTSMOUTH     LGT SNOW  32  32  97 SE5       30.02F VSB 1            
ROCHESTER      LGT SNOW  30  29  96 CALM      30.02F VSB 3/4          
6HR MIN TEMP:  30; 6HR MAX TEMP:  32; 6HR PCP:  0.12;                

NASHUA         LGT SNOW  29  29 100 CALM      30.02F FOG              
MANCHESTER     SNOW      30  28  92 N5        30.01F VSB 1/2          
6HR MIN TEMP:  29; 6HR MAX TEMP:  32; 6HR PCP:  0.12;                

CONCORD        LGT SNOW  28  26  92 NE3       30.02F VSB 3/4          
6HR MIN TEMP:  28; 6HR MAX TEMP:  31; 6HR PCP:  0.12;                

LACONIA        LGT SNOW  26  24  92 NE5       30.02F FOG              
PLYMOUTH       LGT SNOW  26  25  96 CALM      30.01F                  
BERLIN         LGT SNOW  24  22  91 S3        29.96F VSB 3/4          
6HR MIN TEMP:  24; 6HR MAX TEMP:  27; 6HR PCP:  0.01;                

WHITEFIELD     SNOW      26  24  92 CALM      29.96F VSB 1/2          
6HR MIN TEMP:  26; 6HR MAX TEMP:  31; 6HR PCP:  0.03;                

JAFFREY        LGT SNOW  28  27  96 CALM      29.96F VSB 1            
6HR MIN TEMP:  28; 6HR MAX TEMP:  32; 6HR PCP:  0.14;                

KEENE          LGT SNOW  28  26  92 CALM      29.99F FOG              
LEBANON        LGT SNOW  29  26  89 NE3       29.97F FOG              
6HR MIN TEMP:  29; 6HR MAX TEMP:  33; 6HR PCP:  0.06;                

MT WASHINGTON  SNOW       9   9 100 SW38G51     N/A  VSB 1/16WCI -16  
6HR MIN TEMP:   4; 6HR MAX TEMP:  10; 6HR PCP:  0.10;                

$$

VTZ005-007-008-180700-
VERMONT
  
CITY           SKY/WX    TMP DP  RH WIND       PRES   REMARKS
ST JOHNSBURY     N/A     25  24  96 MISG      29.96F                  
MONTPELIER     LGT SNOW  25  24  96 CALM      29.97F FOG              
BURLINGTON     LGT SNOW  31  26  82 S10       29.95F                  
$$

MAZ007-012-024-CTZ003-RIZ002-NYZ038-NYZ072-180700-
SOUTHERN NEW ENGLAND AND NY
  
CITY           SKY/WX    TMP DP  RH WIND       PRES   REMARKS
BOSTON         LGT SNOW  33  32  96 NE7       30.01F VSB 1            
WORCESTER      LGT SNOW  28  26  92 NE5       29.95F VSB 1            
NANTUCKET      LGT RAIN  40  40 100 E15       29.95F                  
PROVIDENCE     LGT SNOW  33  33 100 N7        29.98F VSB 1            
HARTFORD       SNOW      29  29 100 N6        29.98F VSB 1/2          
ALBANY         LGT SNOW  30  27  88 S6        29.97F FOG              
NEW YORK CITY  FOG       33  32  96 E5        29.96F VSB 1            
$$

ANZ081-ANZ082-ANZ150-NHZ014-MEZ023>029-180700-
COASTAL MARINE OBSERVATIONS
  
STATION/POSITION TIME  TEMP    WIND        PRES    WAVE
                       AIR SEA DIR/SP/G            HT/PER
                 (UTC) (F)     (DEG/KT/KT) (MB)    (FT/S)
MOUNT DESERT ROC 0600   33     130/ 25/ 28 1020.0F
MATINICUS ROCK   0500   33     160/ 22/ 24 1019.6F
ISLE OF SHOALS   0500   33     160/ 17/ 20 1018.1F
JEFFREYS LEDGE   0506      42                N/A     5/ 6
GEORGES BANK BUO 0450   29 42              1029.5   12/10
$$

.............KEY..............
   WCI - WIND CHILL
   TC  - TEMPERATURE IN CELSIUS
   VSB - VISIBILITY IN MILES
   HX  - HEAT INDEX
   FAIR- INDICATES FEW OR NO CLOUDS BELOW 12,000 FT, WITH NO 
         SIGNIFICANT WEATHER AND/OR OBSTRUCTIONS TO VISIBILITY.